User: anonymous   Login
Location: Unspecified
(0.0000°N, 0.0000°E)
Time: 03:05:23
(UTC+00:00)
Language:

LES 6 - Orbit

View from above orbital plane
View from above orbital plane
View from above satellite
View from above satellite

Ground track
Ground track

The orbit data is extracted from the following two-line orbital elements,

1 03431U 68081D   18116.62105935 -.00000166  00000-0  00000+0 0  9995
2 03431   5.9347 310.4014 0011535 345.5441  41.4658  1.00352120 91186
Epoch (UTC): 26 April 2018 14:54:19
Eccentricity: 0.0011535
inclination: 5.9347°
perigee height: 35715 km
apogee height: 35812 km
right ascension of ascending node: 310.4014°
argument of perigee: 345.5441°
revolutions per day: 1.00352120
mean anomaly at epoch: 41.4658°
orbit number at epoch: 9118

The dashed part of the orbit path shows where the satellite is in the earth's shadow,  

DLR